DLH773 VTBS-EDDM

Flight info

Callsign DLH773
Flight time N/A
Altitude 34000
Route TARED1J TARED P646 BBN/N0495F360 R460 LKN M890 JAL R594 DPN A589 BUTOP M875 DI N644 LEMOD A909 NINOP/N0481F380 A909 RODAR N644 ADEKI DCT BADIR DCT LAGAS DCT FOQUS DCT SARPI UM10 GOKPA UL746 ODERO L746 LUGEB/N0471F400 DCT MOPUG DCT SUNIS DCT AMADI Q113 NAPSA NAPSA4A
Aircraft A346/H-SDE2E3FGHIJ3J4J5M1RWXY/LB1D1

Departure

Time 2026-05-06 11:07
Airport Suvarnabhumi Airport (VTBS)

Arrival

Time N/A
Airport Munich Airport (EDDM)
Time Latitude Longitude Altitude Speed Heading
2026-05-06 10:34 13.68359 100.74718 21 ft 0 kts 194°
2026-05-06 10:54 13.68382 100.74724 27 ft 4 kts 198°
2026-05-06 10:55 13.68407 100.74735 27 ft 4 kts 208°
2026-05-06 10:55 13.68427 100.74749 27 ft 4 kts 228°
2026-05-06 10:55 13.68437 100.74766 27 ft 4 kts 264°
2026-05-06 10:55 13.68436 100.74775 27 ft 0 kts 284°
2026-05-06 10:59 13.68437 100.74774 27 ft 2 kts 284°
2026-05-06 11:00 13.68447 100.74733 25 ft 8 kts 284°
2026-05-06 11:00 13.68462 100.74672 24 ft 9 kts 284°
2026-05-06 11:00 13.68480 100.74601 21 ft 11 kts 285°
2026-05-06 11:00 13.68501 100.74519 21 ft 13 kts 284°
2026-05-06 11:01 13.68523 100.74428 21 ft 14 kts 284°
2026-05-06 11:01 13.68548 100.74330 24 ft 15 kts 284°
2026-05-06 11:01 13.68570 100.74242 22 ft 10 kts 284°
2026-05-06 11:01 13.68593 100.74178 26 ft 9 kts 308°
2026-05-06 11:02 13.68656 100.74161 22 ft 11 kts 10°
2026-05-06 11:02 13.68736 100.74182 22 ft 13 kts 14°
2026-05-06 11:02 13.68824 100.74205 22 ft 14 kts 14°
2026-05-06 11:02 13.68923 100.74231 22 ft 16 kts 14°
2026-05-06 11:03 13.69062 100.74267 23 ft 23 kts 14°
2026-05-06 11:03 13.69222 100.74309 23 ft 24 kts 14°
2026-05-06 11:03 13.69390 100.74354 21 ft 25 kts 14°
2026-05-06 11:03 13.69562 100.74399 21 ft 26 kts 14°
2026-05-06 11:04 13.69738 100.74445 21 ft 26 kts 14°
2026-05-06 11:04 13.69918 100.74492 21 ft 27 kts 14°
2026-05-06 11:04 13.70060 100.74529 21 ft 16 kts 14°
2026-05-06 11:04 13.70137 100.74550 21 ft 9 kts 14°
2026-05-06 11:05 13.70195 100.74530 22 ft 10 kts 306°
2026-05-06 11:05 13.70219 100.74454 25 ft 12 kts 285°
2026-05-06 11:05 13.70241 100.74370 22 ft 11 kts 284°
2026-05-06 11:05 13.70242 100.74308 25 ft 9 kts 246°
2026-05-06 11:06 13.70205 100.74277 24 ft 5 kts 200°
2026-05-06 11:06 13.70148 100.74261 23 ft 22 kts 194°
2026-05-06 11:06 13.69775 100.74163 23 ft 86 kts 194°
2026-05-06 11:06 13.69014 100.73963 23 ft 139 kts 194°
2026-05-06 11:07 13.67927 100.73677 60 ft 179 kts 193°
2026-05-06 11:07 13.66685 100.73365 523 ft 187 kts 194°
2026-05-06 11:07 13.65405 100.73041 1067 ft 192 kts 193°
2026-05-06 11:07 13.64096 100.72705 1427 ft 197 kts 193°
2026-05-06 11:08 13.62732 100.72346 1724 ft 207 kts 193°
2026-05-06 11:08 13.61300 100.71954 1977 ft 220 kts 194°
2026-05-06 11:08 13.59784 100.71540 2274 ft 234 kts 193°
2026-05-06 11:08 13.58156 100.71099 2475 ft 251 kts 193°
2026-05-06 11:09 13.56421 100.70623 2873 ft 261 kts 192°
2026-05-06 11:09 13.54684 100.69945 3312 ft 272 kts 212°
2026-05-06 11:09 13.53429 100.68499 3872 ft 278 kts 245°
2026-05-06 11:09 13.53059 100.66562 4465 ft 283 kts 274°
2026-05-06 11:10 13.53504 100.64591 4991 ft 288 kts 288°
2026-05-06 11:10 13.54110 100.62585 5582 ft 291 kts 286°
2026-05-06 11:10 13.54649 100.60591 6305 ft 289 kts 285°
2026-05-06 11:10 13.55501 100.58736 6828 ft 291 kts 312°
2026-05-06 11:11 13.57109 100.57490 7394 ft 291 kts 340°
2026-05-06 11:11 13.59080 100.57133 7977 ft 290 kts
2026-05-06 11:11 13.61094 100.57212 8565 ft 292 kts
2026-05-06 11:11 13.63154 100.57308 9122 ft 295 kts
2026-05-06 11:12 13.65214 100.57387 9704 ft 297 kts
2026-05-06 11:12 13.67287 100.57452 10224 ft 300 kts
2026-05-06 11:12 13.69385 100.57510 10511 ft 311 kts
2026-05-06 11:12 13.71606 100.57569 10742 ft 325 kts
2026-05-06 11:13 13.73910 100.57631 10975 ft 338 kts
2026-05-06 11:13 13.76313 100.57607 11185 ft 352 kts 353°
2026-05-06 11:13 13.78739 100.57012 11400 ft 365 kts 339°
2026-05-06 11:13 13.81014 100.55819 11636 ft 378 kts 329°
2026-05-06 11:14 13.83296 100.54374 11869 ft 390 kts 329°
2026-05-06 11:14 13.85618 100.52885 12301 ft 395 kts 329°
2026-05-06 11:14 13.87970 100.51389 12867 ft 397 kts 329°
2026-05-06 11:14 13.90331 100.49895 13425 ft 399 kts 329°
2026-05-06 11:15 13.92569 100.48192 13846 ft 404 kts 314°
2026-05-06 11:15 13.94156 100.45802 14279 ft 407 kts 294°
2026-05-06 11:15 13.94912 100.43008 14753 ft 410 kts 279°
2026-05-06 11:15 13.95308 100.40084 15217 ft 413 kts 278°
2026-05-06 11:16 13.95692 100.37139 15636 ft 416 kts 278°
2026-05-06 11:16 13.96093 100.34174 16070 ft 419 kts 278°
2026-05-06 11:16 13.96503 100.31192 16521 ft 421 kts 279°
2026-05-06 11:16 13.96928 100.28193 16938 ft 424 kts 281°
2026-05-06 11:17 13.97618 100.25241 17337 ft 425 kts 289°
2026-05-06 11:17 13.98754 100.22412 17755 ft 426 kts 298°
2026-05-06 11:17 14.00273 100.19785 18142 ft 428 kts 304°
2026-05-06 11:17 14.01910 100.17254 18508 ft 430 kts 305°
2026-05-06 11:18 14.03597 100.14687 18861 ft 432 kts 305°
2026-05-06 11:18 14.05270 100.12140 19199 ft 434 kts 305°
2026-05-06 11:18 14.06979 100.09524 19544 ft 437 kts 304°
2026-05-06 11:18 14.08660 100.06938 19886 ft 439 kts 305°
2026-05-06 11:19 14.10373 100.04296 20250 ft 440 kts 305°
2026-05-06 11:19 14.12090 100.01654 20591 ft 443 kts 304°
2026-05-06 11:19 14.13784 99.99040 20914 ft 445 kts 304°
2026-05-06 11:19 14.15516 99.96358 21256 ft 447 kts 305°
2026-05-06 11:20 14.17248 99.93678 21599 ft 449 kts 305°
2026-05-06 11:20 14.18969 99.91019 21918 ft 451 kts 304°
2026-05-06 11:20 14.20729 99.88301 22217 ft 454 kts 304°
2026-05-06 11:20 14.22478 99.85598 22513 ft 456 kts 305°
2026-05-06 11:21 14.24227 99.82886 22817 ft 458 kts 304°
2026-05-06 11:21 14.26018 99.80117 23119 ft 460 kts 304°
2026-05-06 11:21 14.27780 99.77385 23384 ft 463 kts 304°
2026-05-06 11:21 14.29584 99.74593 23634 ft 465 kts 304°
2026-05-06 11:22 14.31372 99.71821 23867 ft 466 kts 304°
2026-05-06 11:22 14.33189 99.69010 24115 ft 468 kts 304°
2026-05-06 11:22 14.34995 99.66214 24359 ft 470 kts 304°
2026-05-06 11:22 14.36801 99.63410 24617 ft 471 kts 305°
2026-05-06 11:23 14.38614 99.60600 24878 ft 473 kts 305°
2026-05-06 11:23 14.40430 99.57790 25165 ft 473 kts 304°
2026-05-06 11:23 14.42271 99.54934 25405 ft 475 kts 304°
2026-05-06 11:23 14.44003 99.52027 25643 ft 477 kts 301°
2026-05-06 11:24 14.45606 99.49020 25882 ft 479 kts 298°
2026-05-06 11:24 14.47145 99.45990 26094 ft 481 kts 298°
2026-05-06 11:24 14.48687 99.42921 26320 ft 482 kts 298°
2026-05-06 11:24 14.50251 99.39810 26563 ft 484 kts 298°
2026-05-06 11:25 14.51795 99.36742 26802 ft 485 kts 298°
2026-05-06 11:25 14.53351 99.33651 27025 ft 487 kts 298°
2026-05-06 11:25 14.54909 99.30558 27252 ft 488 kts 298°
2026-05-06 11:25 14.56497 99.27403 27465 ft 490 kts 298°
2026-05-06 11:26 14.58060 99.24301 27672 ft 492 kts 298°
2026-05-06 11:26 14.59644 99.21154 27881 ft 493 kts 298°
2026-05-06 11:26 14.61246 99.17967 28115 ft 495 kts 298°
2026-05-06 11:26 14.62829 99.14825 28379 ft 495 kts 298°
2026-05-06 11:27 14.64406 99.11689 28740 ft 493 kts 298°
2026-05-06 11:27 14.65980 99.08567 29104 ft 491 kts 298°
2026-05-06 11:27 14.67574 99.05404 29400 ft 491 kts 298°
2026-05-06 11:27 14.69144 99.02282 29671 ft 491 kts 298°
2026-05-06 11:28 14.70714 98.99157 29940 ft 491 kts 298°
2026-05-06 11:28 14.72290 98.96015 30193 ft 490 kts 298°
2026-05-06 11:28 14.73856 98.92892 30444 ft 489 kts 298°
2026-05-06 11:28 14.75419 98.89774 30714 ft 489 kts 298°
2026-05-06 11:29 14.76972 98.86674 30981 ft 488 kts 298°
2026-05-06 11:29 14.78543 98.83542 31277 ft 486 kts 298°
2026-05-06 11:29 14.80089 98.80454 31611 ft 484 kts 298°
2026-05-06 11:29 14.81624 98.77389 31868 ft 482 kts 298°
2026-05-06 11:30 14.83181 98.74276 32113 ft 482 kts 298°
2026-05-06 11:30 14.84713 98.71210 32324 ft 482 kts 298°
2026-05-06 11:30 14.86256 98.68124 32528 ft 483 kts 298°
2026-05-06 11:30 14.87793 98.65048 32735 ft 483 kts 298°
2026-05-06 11:31 14.89345 98.61942 32936 ft 484 kts 298°
2026-05-06 11:31 14.90889 98.58851 33139 ft 484 kts 298°
2026-05-06 11:31 14.92448 98.55728 33339 ft 485 kts 298°
2026-05-06 11:31 14.93990 98.52636 33524 ft 485 kts 298°
2026-05-06 11:32 14.95530 98.49548 33726 ft 486 kts 298°
2026-05-06 11:32 14.98129 98.44336 33816 ft 487 kts 298°
2026-05-06 11:33 15.01222 98.38126 33823 ft 487 kts 298°
2026-05-06 11:33 15.04334 98.31872 33815 ft 486 kts 298°
2026-05-06 11:34 15.07415 98.25679 33817 ft 484 kts 298°
2026-05-06 11:34 15.10499 98.19460 33817 ft 485 kts 298°
2026-05-06 11:35 15.13520 98.13250 33808 ft 485 kts 297°
2026-05-06 11:35 15.16551 98.06997 33808 ft 485 kts 297°
2026-05-06 11:36 15.19584 98.00743 33795 ft 485 kts 297°
2026-05-06 11:36 15.22614 97.94493 33795 ft 484 kts 297°
2026-05-06 11:37 15.25614 97.88303 33790 ft 484 kts 297°
2026-05-06 11:37 15.28635 97.82066 33789 ft 484 kts 297°
2026-05-06 11:38 15.31665 97.75804 33790 ft 484 kts 297°
2026-05-06 11:38 15.34664 97.69600 33784 ft 484 kts 297°
2026-05-06 11:39 15.37688 97.63340 33782 ft 484 kts 297°
2026-05-06 11:39 15.40687 97.57126 33779 ft 483 kts 297°
2026-05-06 11:40 15.43684 97.50908 33781 ft 481 kts 297°
2026-05-06 11:40 15.46763 97.44725 33781 ft 481 kts 299°
2026-05-06 11:41 15.49908 97.38594 33781 ft 481 kts 299°
2026-05-06 11:41 15.53036 97.32481 33780 ft 480 kts 298°
2026-05-06 11:42 15.56164 97.26346 33782 ft 479 kts 298°
2026-05-06 11:42 15.59261 97.20261 33781 ft 479 kts 298°
2026-05-06 11:43 15.62375 97.14133 33787 ft 479 kts 298°
2026-05-06 11:43 15.65489 97.08001 33787 ft 479 kts 298°
2026-05-06 11:44 15.70143 96.98828 33787 ft 479 kts 298°
2026-05-06 11:44 15.73233 96.92729 33787 ft 479 kts 298°
2026-05-06 11:45 15.76341 96.86591 33790 ft 479 kts 298°
2026-05-06 11:45 15.79457 96.80433 33788 ft 480 kts 298°
2026-05-06 11:46 15.82548 96.74317 33787 ft 480 kts 298°
2026-05-06 11:46 15.85661 96.68152 33787 ft 480 kts 298°
2026-05-06 11:47 15.88748 96.62034 33788 ft 480 kts 298°
2026-05-06 11:47 15.91857 96.55871 33789 ft 478 kts 298°
2026-05-06 11:48 15.94928 96.49772 33787 ft 478 kts 298°
2026-05-06 11:48 15.98019 96.43632 33787 ft 478 kts 297°
2026-05-06 11:49 16.01095 96.37514 33787 ft 478 kts 297°
2026-05-06 11:49 16.04191 96.31347 33787 ft 478 kts 297°
2026-05-06 11:50 16.07264 96.25224 33787 ft 478 kts 297°
2026-05-06 11:50 16.10359 96.19051 33787 ft 478 kts 297°
2026-05-06 11:51 16.13438 96.12907 33787 ft 478 kts 297°
2026-05-06 11:51 16.16507 96.06781 33786 ft 478 kts 297°
2026-05-06 11:52 16.19588 96.00624 33787 ft 479 kts 297°
2026-05-06 11:52 16.22641 95.94509 33787 ft 479 kts 297°
2026-05-06 11:53 16.25728 95.88325 33780 ft 479 kts 297°
2026-05-06 11:53 16.28784 95.82201 33784 ft 477 kts 297°
2026-05-06 11:54 16.31851 95.76046 33779 ft 477 kts 297°
2026-05-06 11:54 16.34888 95.69946 33778 ft 477 kts 296°
2026-05-06 11:55 16.37970 95.63755 33776 ft 478 kts 296°
2026-05-06 11:55 16.41016 95.57623 33776 ft 478 kts 296°
2026-05-06 11:56 16.44075 95.51462 33776 ft 478 kts 296°
2026-05-06 11:56 16.47133 95.45299 33773 ft 478 kts 296°
2026-05-06 11:57 16.50196 95.39118 33773 ft 478 kts 296°
2026-05-06 11:57 16.53255 95.32943 33779 ft 478 kts 296°
2026-05-06 11:58 16.56305 95.26781 33776 ft 478 kts 296°
2026-05-06 11:58 16.59355 95.20610 33776 ft 478 kts 296°
2026-05-06 11:59 16.62385 95.14474 33779 ft 478 kts 296°
2026-05-06 11:59 16.65430 95.08306 33780 ft 478 kts 296°
2026-05-06 12:00 16.68475 95.02130 33782 ft 478 kts 296°
2026-05-06 12:00 16.71505 94.95978 33789 ft 478 kts 296°
2026-05-06 12:01 16.74556 94.89779 33789 ft 477 kts 296°
2026-05-06 12:01 16.77575 94.83636 33793 ft 477 kts 296°
2026-05-06 12:02 16.80885 94.77601 33792 ft 478 kts 301°
2026-05-06 12:02 16.84758 94.71932 33795 ft 480 kts 307°
2026-05-06 12:03 16.88949 94.66507 33798 ft 480 kts 307°
2026-05-06 12:03 16.93159 94.61090 33797 ft 480 kts 307°
2026-05-06 12:04 16.97362 94.55676 33805 ft 480 kts 307°
2026-05-06 12:04 17.01568 94.50252 33806 ft 479 kts 307°
2026-05-06 12:05 17.05764 94.44831 33801 ft 479 kts 307°
2026-05-06 12:05 17.09929 94.39445 33801 ft 479 kts 307°
2026-05-06 12:06 17.14125 94.34017 33801 ft 479 kts 307°
2026-05-06 12:06 17.18309 94.28598 33801 ft 479 kts 307°
2026-05-06 12:07 17.22506 94.23160 33801 ft 479 kts 307°
2026-05-06 12:07 17.26684 94.17742 33803 ft 478 kts 307°
2026-05-06 12:08 17.30863 94.12320 33801 ft 478 kts 307°
2026-05-06 12:08 17.35041 94.06892 33804 ft 478 kts 307°
2026-05-06 12:09 17.39205 94.01480 33806 ft 476 kts 307°
2026-05-06 12:09 17.43326 93.96117 33805 ft 475 kts 307°
2026-05-06 12:10 17.47500 93.90680 33804 ft 476 kts 307°
2026-05-06 12:10 17.51626 93.85303 33804 ft 476 kts 307°
2026-05-06 12:11 17.55771 93.79897 33804 ft 475 kts 306°
2026-05-06 12:11 17.59925 93.74477 33801 ft 475 kts 306°
2026-05-06 12:12 17.64051 93.69085 33802 ft 474 kts 306°
2026-05-06 12:12 17.68186 93.63679 33803 ft 474 kts 306°
2026-05-06 12:13 17.72304 93.58291 33814 ft 474 kts 306°
2026-05-06 12:13 17.76427 93.52893 33806 ft 473 kts 306°
2026-05-06 12:14 17.80557 93.47479 33806 ft 473 kts 306°
2026-05-06 12:14 17.84668 93.42085 33807 ft 473 kts 306°
2026-05-06 12:15 17.88779 93.36688 33802 ft 473 kts 306°
2026-05-06 12:15 17.92900 93.31275 33805 ft 473 kts 306°
2026-05-06 12:16 17.97003 93.25879 33807 ft 473 kts 306°
2026-05-06 12:16 18.01107 93.20478 33806 ft 473 kts 306°
2026-05-06 12:17 18.05213 93.15070 33804 ft 473 kts 306°
2026-05-06 12:17 18.09329 93.09648 33807 ft 472 kts 306°
2026-05-06 12:18 18.13403 93.04273 33811 ft 472 kts 306°
2026-05-06 12:18 18.17500 92.98864 33806 ft 472 kts 306°
2026-05-06 12:19 18.21580 92.93469 33806 ft 472 kts 306°
2026-05-06 12:19 18.25690 92.88031 33806 ft 472 kts 306°
2026-05-06 12:20 18.29779 92.82618 33807 ft 472 kts 306°
2026-05-06 12:20 18.33865 92.77205 33806 ft 472 kts 306°
2026-05-06 12:21 18.37952 92.71786 33806 ft 472 kts 305°
2026-05-06 12:21 18.41359 92.67264 33806 ft 472 kts 305°
2026-05-06 12:22 18.45456 92.61830 33814 ft 472 kts 305°
2026-05-06 12:22 18.49538 92.56401 33811 ft 472 kts 305°
2026-05-06 12:23 18.53610 92.50980 33810 ft 472 kts 305°
2026-05-06 12:23 18.57702 92.45532 33811 ft 472 kts 305°
2026-05-06 12:24 18.61761 92.40122 33811 ft 472 kts 305°
2026-05-06 12:24 18.65864 92.34649 33809 ft 472 kts 305°
2026-05-06 12:25 18.69915 92.29243 33803 ft 472 kts 305°
2026-05-06 12:25 18.74008 92.23778 33805 ft 472 kts 304°
2026-05-06 12:26 18.78081 92.18329 33810 ft 472 kts 304°
2026-05-06 12:26 18.82147 92.12885 33811 ft 472 kts 304°
2026-05-06 12:27 18.86190 92.07469 33809 ft 472 kts 304°
2026-05-06 12:27 18.90273 92.01995 33808 ft 472 kts 304°
2026-05-06 12:28 18.94318 91.96530 33810 ft 472 kts 304°
2026-05-06 12:28 18.98311 91.91062 33808 ft 472 kts 304°
2026-05-06 12:29 19.02345 91.85538 33808 ft 472 kts 303°
2026-05-06 12:29 19.06353 91.80042 33811 ft 472 kts 303°
2026-05-06 12:30 19.10342 91.74571 33810 ft 472 kts 303°
2026-05-06 12:30 19.14353 91.69066 33819 ft 471 kts 303°
2026-05-06 12:31 19.18359 91.63564 33812 ft 471 kts 303°
2026-05-06 12:31 19.22352 91.58075 33810 ft 471 kts 303°
2026-05-06 12:32 19.26346 91.52578 33815 ft 471 kts 303°
2026-05-06 12:32 19.30360 91.47053 33798 ft 471 kts 303°
2026-05-06 12:33 19.34361 91.41537 33808 ft 471 kts 303°
2026-05-06 12:33 19.38336 91.36052 33810 ft 471 kts 303°
2026-05-06 12:34 19.42326 91.30541 33809 ft 471 kts 303°
2026-05-06 12:34 19.46326 91.25013 33815 ft 471 kts 303°
2026-05-06 12:35 19.50321 91.19488 33811 ft 470 kts 303°
2026-05-06 12:35 19.54297 91.13982 33809 ft 470 kts 303°
2026-05-06 12:36 19.58268 91.08477 33810 ft 472 kts 303°
2026-05-06 12:36 19.62264 91.02934 33813 ft 472 kts 303°
2026-05-06 12:37 19.66247 90.97404 33808 ft 472 kts 303°
2026-05-06 12:37 19.70246 90.91846 33810 ft 472 kts 303°
2026-05-06 12:38 19.74210 90.86332 33809 ft 472 kts 303°
2026-05-06 12:38 19.78207 90.80767 33807 ft 472 kts 303°
2026-05-06 12:39 19.82195 90.75213 33810 ft 471 kts 303°
2026-05-06 12:39 19.86171 90.69666 33806 ft 471 kts 302°
2026-05-06 12:40 19.90120 90.64150 33805 ft 471 kts 302°
2026-05-06 12:40 19.94094 90.58595 33805 ft 471 kts 302°
2026-05-06 12:41 19.98056 90.53053 33809 ft 471 kts 302°
2026-05-06 12:41 20.02029 90.47490 33809 ft 471 kts 302°
2026-05-06 12:42 20.05996 90.41930 33809 ft 471 kts 302°
2026-05-06 12:42 20.09943 90.36394 33808 ft 471 kts 302°
2026-05-06 12:43 20.13905 90.30830 33817 ft 472 kts 302°
2026-05-06 12:43 20.17860 90.25274 33811 ft 471 kts 302°
2026-05-06 12:44 20.21839 90.19675 33807 ft 471 kts 302°
2026-05-06 12:44 20.25787 90.14115 33807 ft 471 kts 302°
2026-05-06 12:45 20.29734 90.08551 33806 ft 471 kts 302°
2026-05-06 12:46 20.35644 90.00211 33806 ft 471 kts 302°
2026-05-06 12:46 20.39608 89.94610 33808 ft 472 kts 302°
2026-05-06 12:47 20.43561 89.89020 33807 ft 472 kts 302°
2026-05-06 12:47 20.47511 89.83427 33820 ft 472 kts 302°
2026-05-06 12:48 20.51457 89.77838 33811 ft 471 kts 302°
2026-05-06 12:48 20.55400 89.72245 33805 ft 471 kts 302°
2026-05-06 12:49 20.59332 89.66662 33810 ft 471 kts 302°
2026-05-06 12:49 20.63259 89.61082 33805 ft 471 kts 302°
2026-05-06 12:50 20.67192 89.55487 33807 ft 471 kts 302°
2026-05-06 12:50 20.71124 89.49888 33812 ft 471 kts 302°
2026-05-06 12:51 20.75047 89.44297 33811 ft 471 kts 302°
2026-05-06 12:51 20.78981 89.38684 33807 ft 471 kts 302°
2026-05-06 12:52 20.82906 89.33081 33812 ft 470 kts 302°
2026-05-06 12:52 20.86824 89.27479 33812 ft 469 kts 302°
2026-05-06 12:53 20.90730 89.21887 33809 ft 470 kts 302°
2026-05-06 12:53 20.94445 89.16151 33805 ft 469 kts 299°
2026-05-06 12:54 20.98082 89.10362 33812 ft 469 kts 299°
2026-05-06 12:54 21.01715 89.04572 33801 ft 469 kts 299°
2026-05-06 12:55 21.05348 88.98778 33801 ft 469 kts 299°
2026-05-06 12:55 21.08996 88.92955 33804 ft 469 kts 299°
2026-05-06 12:56 21.12629 88.87152 33806 ft 469 kts 299°
2026-05-06 12:56 21.16263 88.81342 33813 ft 469 kts 299°
2026-05-06 12:57 21.19895 88.75526 33795 ft 469 kts 299°
2026-05-06 12:57 21.23527 88.69705 33796 ft 469 kts 299°
2026-05-06 12:58 21.27152 88.63889 33796 ft 469 kts 299°
2026-05-06 12:58 21.30767 88.58083 33791 ft 469 kts 299°
2026-05-06 12:59 21.34397 88.52254 33788 ft 469 kts 299°
2026-05-06 12:59 21.38082 88.46472 33806 ft 470 kts 300°
2026-05-06 13:00 21.41784 88.40687 33806 ft 468 kts 300°
2026-05-06 13:00 21.45454 88.34938 33804 ft 467 kts 300°
2026-05-06 13:01 21.49137 88.29158 33798 ft 465 kts 300°
2026-05-06 13:01 21.52772 88.23444 33794 ft 464 kts 300°
2026-05-06 13:02 21.56422 88.17699 33790 ft 464 kts 300°
2026-05-06 13:02 21.60060 88.11969 33790 ft 464 kts 300°
2026-05-06 13:03 21.63697 88.06231 33792 ft 463 kts 300°
2026-05-06 13:03 21.67311 88.00527 33788 ft 463 kts 300°
2026-05-06 13:04 21.70939 87.94794 33784 ft 463 kts 300°
2026-05-06 13:04 21.74552 87.89078 33784 ft 463 kts 300°
2026-05-06 13:05 21.78177 87.83338 33784 ft 463 kts 300°
2026-05-06 13:05 21.81793 87.77605 33786 ft 462 kts 300°
2026-05-06 13:06 21.85417 87.71856 33781 ft 462 kts 300°
2026-05-06 13:06 21.89007 87.66154 33789 ft 461 kts 299°
2026-05-06 13:07 21.92620 87.60406 33786 ft 461 kts 299°
2026-05-06 13:07 21.96219 87.54676 33786 ft 461 kts 299°
2026-05-06 13:08 21.99804 87.48963 33784 ft 461 kts 299°
2026-05-06 13:08 22.03404 87.43220 33784 ft 461 kts 299°
2026-05-06 13:09 22.06993 87.37487 33791 ft 461 kts 299°
2026-05-06 13:09 22.10577 87.31757 33786 ft 462 kts 299°
2026-05-06 13:10 22.14176 87.25995 33789 ft 464 kts 299°
2026-05-06 13:10 22.17776 87.20228 33789 ft 464 kts 299°
2026-05-06 13:11 22.21398 87.14419 33790 ft 464 kts 299°
2026-05-06 13:11 22.24992 87.08649 33795 ft 464 kts 299°
2026-05-06 13:12 22.27989 87.03832 33796 ft 464 kts 299°
2026-05-06 13:12 22.31584 86.98049 33795 ft 464 kts 299°
2026-05-06 13:13 22.35177 86.92259 33800 ft 463 kts 299°
2026-05-06 13:13 22.38788 86.86437 33803 ft 463 kts 299°
2026-05-06 13:14 22.42354 86.80682 33801 ft 463 kts 299°
2026-05-06 13:14 22.45947 86.74882 33820 ft 461 kts 299°
2026-05-06 13:15 22.49509 86.69119 33811 ft 461 kts 299°
2026-05-06 13:15 22.53073 86.63346 33813 ft 461 kts 299°
2026-05-06 13:16 22.56627 86.57583 33813 ft 461 kts 299°
2026-05-06 13:16 22.60181 86.51812 33815 ft 460 kts 299°
2026-05-06 13:17 22.63728 86.46051 33816 ft 460 kts 299°
2026-05-06 13:17 22.67290 86.40258 33817 ft 460 kts 299°
2026-05-06 13:18 22.70825 86.34501 33817 ft 460 kts 299°
2026-05-06 13:18 22.74374 86.28718 33854 ft 460 kts 299°
2026-05-06 13:19 22.77904 86.22961 33736 ft 459 kts 298°
2026-05-06 13:19 22.81614 86.17292 33735 ft 462 kts 303°
2026-05-06 13:20 22.85802 86.11951 33736 ft 465 kts 306°
2026-05-06 13:20 22.90095 86.06743 33746 ft 465 kts 306°
2026-05-06 13:21 22.94428 86.01490 33768 ft 465 kts 306°
2026-05-06 13:21 22.98733 85.96264 33798 ft 465 kts 306°
2026-05-06 13:22 23.03038 85.91032 33822 ft 465 kts 306°
2026-05-06 13:22 23.07328 85.85818 33854 ft 465 kts 306°
2026-05-06 13:23 23.11650 85.80552 33839 ft 466 kts 306°
2026-05-06 13:23 23.15948 85.75310 33839 ft 466 kts 306°
2026-05-06 13:24 23.20274 85.70027 33858 ft 466 kts 306°
2026-05-06 13:24 23.24593 85.64750 33859 ft 466 kts 306°
2026-05-06 13:25 23.28893 85.59491 33859 ft 466 kts 306°
2026-05-06 13:25 23.33202 85.54215 33871 ft 466 kts 306°
2026-05-06 13:26 23.37498 85.48949 33893 ft 465 kts 306°
2026-05-06 13:26 23.41779 85.43700 33871 ft 463 kts 306°
2026-05-06 13:27 23.46058 85.38442 33876 ft 461 kts 306°
2026-05-06 13:27 23.50309 85.33214 33873 ft 460 kts 306°
2026-05-06 13:28 23.54546 85.27996 33871 ft 460 kts 306°
2026-05-06 13:28 23.58788 85.22769 33879 ft 460 kts 306°
2026-05-06 13:29 23.63033 85.17532 33870 ft 460 kts 306°
2026-05-06 13:29 23.67276 85.12293 33869 ft 461 kts 306°
2026-05-06 13:30 23.71527 85.07043 33869 ft 460 kts 305°
2026-05-06 13:30 23.75767 85.01792 33864 ft 460 kts 305°
2026-05-06 13:31 23.79985 84.96565 33848 ft 460 kts 305°
2026-05-06 13:31 23.84213 84.91321 33843 ft 461 kts 305°
2026-05-06 13:32 23.88441 84.86072 33841 ft 461 kts 305°
2026-05-06 13:32 23.92679 84.80805 33823 ft 461 kts 305°
2026-05-06 13:33 23.96907 84.75545 33825 ft 461 kts 305°
2026-05-06 13:33 24.01163 84.70248 33839 ft 462 kts 305°
2026-05-06 13:34 24.05401 84.64959 33810 ft 462 kts 305°
2026-05-06 13:34 24.09640 84.59668 33805 ft 462 kts 305°
2026-05-06 13:35 24.13867 84.54385 33804 ft 462 kts 305°
2026-05-06 13:35 24.18091 84.49101 33794 ft 462 kts 305°
2026-05-06 13:36 24.22313 84.43808 33791 ft 461 kts 304°
2026-05-06 13:36 24.26536 84.38478 33789 ft 462 kts 304°
2026-05-06 13:37 24.30753 84.33150 33791 ft 463 kts 304°
2026-05-06 13:37 24.34965 84.27821 33786 ft 463 kts 304°
2026-05-06 13:38 24.39182 84.22479 33784 ft 462 kts 304°
2026-05-06 13:38 24.43386 84.17151 33774 ft 462 kts 304°
2026-05-06 13:39 24.47597 84.11808 33777 ft 463 kts 304°
2026-05-06 13:39 24.51812 84.06453 33776 ft 462 kts 304°
2026-05-06 13:40 24.56028 84.01091 33768 ft 462 kts 304°
2026-05-06 13:40 24.60211 83.95766 33797 ft 463 kts 304°
2026-05-06 13:41 24.64426 83.90392 33769 ft 464 kts 304°
2026-05-06 13:41 24.68653 83.84996 33767 ft 463 kts 304°
2026-05-06 13:42 24.72855 83.79628 33771 ft 463 kts 304°
2026-05-06 13:42 24.77062 83.74247 33763 ft 463 kts 304°
2026-05-06 13:43 24.81239 83.68899 33761 ft 463 kts 304°
2026-05-06 13:43 24.85452 83.63502 33765 ft 464 kts 304°
2026-05-06 13:44 24.89643 83.58117 33772 ft 464 kts 304°
2026-05-06 13:44 24.93856 83.52704 33762 ft 465 kts 304°
2026-05-06 13:45 24.98076 83.47277 33752 ft 464 kts 304°
2026-05-06 13:45 25.04359 83.39184 33755 ft 464 kts 304°
2026-05-06 13:46 25.08567 83.33755 33753 ft 464 kts 304°
2026-05-06 13:46 25.12763 83.28337 33743 ft 464 kts 304°
2026-05-06 13:47 25.16935 83.22942 33743 ft 464 kts 304°
2026-05-06 13:47 25.21108 83.17539 33743 ft 464 kts 304°
2026-05-06 13:48 25.25313 83.12088 33735 ft 463 kts 304°
2026-05-06 13:48 25.29473 83.06691 33735 ft 463 kts 304°
2026-05-06 13:49 25.33670 83.01238 33717 ft 463 kts 304°
2026-05-06 13:49 25.37830 82.95829 33918 ft 461 kts 304°
2026-05-06 13:50 25.39909 82.93122 34029 ft 460 kts 304°
2026-05-06 13:50 25.41987 82.90415 34146 ft 460 kts 304°
2026-05-06 13:50 25.46055 82.84979 34361 ft 456 kts 301°
2026-05-06 13:51 25.47969 82.82179 34511 ft 455 kts 301°
2026-05-06 13:51 25.49867 82.79379 34614 ft 454 kts 301°
2026-05-06 13:51 25.51762 82.76577 34755 ft 453 kts 301°
2026-05-06 13:51 25.53646 82.73790 34863 ft 451 kts 301°
2026-05-06 13:52 25.55529 82.71005 34980 ft 451 kts 301°
2026-05-06 13:52 25.57386 82.68257 35101 ft 450 kts 301°
2026-05-06 13:52 25.59267 82.65470 35216 ft 449 kts 301°
2026-05-06 13:52 25.61145 82.62688 35335 ft 449 kts 301°
2026-05-06 13:53 25.63014 82.59916 35453 ft 448 kts 301°
2026-05-06 13:53 25.64879 82.57149 35571 ft 448 kts 301°
2026-05-06 13:53 25.66743 82.54382 35693 ft 447 kts 301°
2026-05-06 13:53 25.68603 82.51619 35714 ft 447 kts 301°
2026-05-06 13:54 25.72321 82.46090 35725 ft 446 kts 301°
2026-05-06 13:54 25.76038 82.40558 35758 ft 446 kts 301°
2026-05-06 13:55 25.79733 82.35047 35734 ft 447 kts 301°
2026-05-06 13:55 25.83445 82.29512 35727 ft 447 kts 301°
2026-05-06 13:56 25.87155 82.23969 35726 ft 447 kts 301°
2026-05-06 13:56 25.90871 82.18412 35725 ft 447 kts 301°
2026-05-06 13:57 25.94580 82.12859 35728 ft 447 kts 301°
2026-05-06 13:57 25.98262 82.07339 35731 ft 447 kts 301°
2026-05-06 13:58 26.01963 82.01784 35731 ft 447 kts 301°
2026-05-06 13:58 26.05668 81.96217 35744 ft 447 kts 301°
2026-05-06 13:59 26.09380 81.90631 35737 ft 448 kts 301°
2026-05-06 13:59 26.13062 81.85084 35734 ft 448 kts 301°
2026-05-06 14:00 26.16767 81.79498 35738 ft 448 kts 301°
2026-05-06 14:00 26.20470 81.73905 35739 ft 448 kts 301°
2026-05-06 14:01 26.24170 81.68311 35737 ft 448 kts 301°
2026-05-06 14:01 26.27865 81.62715 35739 ft 448 kts 301°
2026-05-06 14:02 26.31563 81.57111 35742 ft 448 kts 301°
2026-05-06 14:02 26.35252 81.51510 35749 ft 448 kts 301°
2026-05-06 14:03 26.38948 81.45897 35734 ft 448 kts 301°
2026-05-06 14:03 26.42619 81.40314 35744 ft 448 kts 301°
2026-05-06 14:04 26.46306 81.34699 35749 ft 448 kts 301°
2026-05-06 14:04 26.49367 81.30032 35750 ft 448 kts 301°
2026-05-06 14:05 26.53048 81.24407 35750 ft 446 kts 302°
2026-05-06 14:05 26.56716 81.18804 35737 ft 446 kts 302°
2026-05-06 14:06 26.60383 81.13191 35776 ft 446 kts 302°
2026-05-06 14:06 26.64027 81.07605 35761 ft 447 kts 302°
2026-05-06 14:07 26.67695 81.01981 35752 ft 447 kts 302°
2026-05-06 14:07 26.71360 80.96352 35751 ft 447 kts 302°
2026-05-06 14:08 26.75037 80.90724 35751 ft 448 kts 303°
2026-05-06 14:08 26.79005 80.85324 35758 ft 449 kts 306°
2026-05-06 14:09 26.83045 80.80040 35759 ft 448 kts 306°
2026-05-06 14:09 26.87108 80.74724 35804 ft 448 kts 306°
2026-05-06 14:10 26.91170 80.69398 35771 ft 450 kts 306°
2026-05-06 14:10 26.95241 80.64058 35764 ft 450 kts 306°
2026-05-06 14:11 26.99308 80.58718 35762 ft 450 kts 306°
2026-05-06 14:11 27.03374 80.53371 35755 ft 450 kts 306°
2026-05-06 14:12 27.07428 80.48032 35760 ft 448 kts 306°
2026-05-06 14:12 27.11467 80.42707 35761 ft 447 kts 306°
2026-05-06 14:13 27.15503 80.37377 35797 ft 447 kts 306°
2026-05-06 14:13 27.19538 80.32042 35766 ft 448 kts 306°
2026-05-06 14:14 27.23553 80.26731 35763 ft 448 kts 306°
2026-05-06 14:14 27.27589 80.21385 35767 ft 448 kts 306°
2026-05-06 14:15 27.31622 80.16034 35766 ft 448 kts 307°
2026-05-06 14:15 27.35639 80.10696 35763 ft 445 kts 307°
2026-05-06 14:16 27.39649 80.05362 35767 ft 445 kts 307°
2026-05-06 14:16 27.43630 80.00059 35777 ft 446 kts 307°
2026-05-06 14:17 27.47644 79.94709 35769 ft 446 kts 307°
2026-05-06 14:17 27.51650 79.89361 35765 ft 446 kts 307°
2026-05-06 14:18 27.55660 79.84002 35764 ft 446 kts 306°
2026-05-06 14:18 27.59630 79.78687 35762 ft 446 kts 307°
2026-05-06 14:19 27.63613 79.73327 35759 ft 443 kts 306°
2026-05-06 14:19 27.67255 79.67727 35761 ft 441 kts 301°
2026-05-06 14:20 27.70409 79.61784 35775 ft 440 kts 296°
2026-05-06 14:20 27.73058 79.55543 35764 ft 440 kts 291°
2026-05-06 14:21 27.75423 79.49165 35759 ft 440 kts 291°
2026-05-06 14:21 27.77772 79.42779 35759 ft 440 kts 291°
2026-05-06 14:22 27.80112 79.36388 35756 ft 439 kts 291°
2026-05-06 14:22 27.82448 79.30004 35758 ft 439 kts 291°
2026-05-06 14:23 27.84764 79.23659 35759 ft 439 kts 291°
2026-05-06 14:23 27.87094 79.17265 35758 ft 439 kts 291°
2026-05-06 14:24 27.89420 79.10870 35758 ft 439 kts 291°
2026-05-06 14:24 27.91744 79.04469 35750 ft 439 kts 291°
2026-05-06 14:25 27.94056 78.98090 35755 ft 437 kts 291°
2026-05-06 14:25 27.96361 78.91721 35755 ft 437 kts 291°
2026-05-06 14:26 27.98667 78.85343 35755 ft 437 kts 291°
2026-05-06 14:26 28.00970 78.78964 35755 ft 437 kts 291°
2026-05-06 14:27 28.03267 78.72584 35754 ft 437 kts 291°
2026-05-06 14:27 28.05560 78.66200 35752 ft 436 kts 291°
2026-05-06 14:28 28.07830 78.59874 35756 ft 436 kts 291°
2026-05-06 14:28 28.10114 78.53501 35754 ft 436 kts 291°
2026-05-06 14:29 28.12392 78.47133 35755 ft 436 kts 291°
2026-05-06 14:29 28.14669 78.40753 35755 ft 436 kts 291°
2026-05-06 14:30 28.16941 78.34375 35788 ft 436 kts 291°
2026-05-06 14:30 28.19212 78.27990 35761 ft 436 kts 291°
2026-05-06 14:31 28.21480 78.21603 35752 ft 436 kts 291°
2026-05-06 14:31 28.23747 78.15211 35751 ft 436 kts 291°
2026-05-06 14:32 28.25994 78.08859 35747 ft 436 kts 291°
2026-05-06 14:32 28.28258 78.02452 35747 ft 436 kts 291°
2026-05-06 14:33 28.30518 77.96041 35750 ft 436 kts 291°
2026-05-06 14:33 28.32770 77.89639 35746 ft 436 kts 291°
2026-05-06 14:34 28.35027 77.83216 35747 ft 436 kts 291°
2026-05-06 14:34 28.37264 77.76838 35750 ft 436 kts 291°
2026-05-06 14:35 28.39458 77.70399 35753 ft 436 kts 289°
2026-05-06 14:35 28.41352 77.63833 35765 ft 437 kts 288°
2026-05-06 14:36 28.43217 77.57255 35744 ft 437 kts 288°
2026-05-06 14:36 28.45079 77.50671 35756 ft 437 kts 288°
2026-05-06 14:37 28.46938 77.44090 35761 ft 437 kts 288°
2026-05-06 14:37 28.48783 77.37543 35761 ft 437 kts 288°
2026-05-06 14:38 28.50633 77.30960 35761 ft 437 kts 288°
2026-05-06 14:38 28.52483 77.24363 35762 ft 437 kts 288°
2026-05-06 14:39 28.54328 77.17755 35757 ft 437 kts 288°
2026-05-06 14:39 28.56289 77.11242 35787 ft 437 kts 292°
2026-05-06 14:40 28.58752 77.04905 35788 ft 437 kts 296°
2026-05-06 14:40 28.61536 76.98754 35786 ft 437 kts 297°
2026-05-06 14:41 28.64337 76.92606 35785 ft 436 kts 297°
2026-05-06 14:41 28.67138 76.86462 35745 ft 436 kts 297°
2026-05-06 14:42 28.69914 76.80361 35759 ft 435 kts 297°
2026-05-06 14:42 28.72702 76.74231 35755 ft 435 kts 297°
2026-05-06 14:43 28.75484 76.68104 35759 ft 435 kts 297°
2026-05-06 14:43 28.78264 76.61971 35753 ft 435 kts 297°
2026-05-06 14:44 28.81029 76.55864 35756 ft 435 kts 297°
2026-05-06 14:45 28.85191 76.46646 35771 ft 434 kts 297°
2026-05-06 14:45 28.87964 76.40495 35759 ft 435 kts 297°
2026-05-06 14:46 28.90730 76.34353 35752 ft 435 kts 297°
2026-05-06 14:46 28.93496 76.28201 35750 ft 435 kts 297°
2026-05-06 14:47 28.96239 76.22089 35753 ft 435 kts 297°
2026-05-06 14:47 28.98997 76.15934 35750 ft 435 kts 297°
2026-05-06 14:48 29.01754 76.09770 35741 ft 434 kts 297°
2026-05-06 14:48 29.04499 76.03627 35746 ft 433 kts 297°
2026-05-06 14:49 29.07237 75.97489 35750 ft 433 kts 297°
2026-05-06 14:49 29.09974 75.91340 35757 ft 434 kts 297°
2026-05-06 14:50 29.12713 75.85182 35750 ft 434 kts 297°
2026-05-06 14:50 29.15450 75.79016 35747 ft 434 kts 297°
2026-05-06 14:51 29.17715 75.73903 35740 ft 432 kts 297°
2026-05-06 14:51 29.20436 75.67758 35740 ft 431 kts 297°
2026-05-06 14:52 29.23587 75.60629 35739 ft 431 kts 297°
2026-05-06 14:52 29.25859 75.55476 35738 ft 431 kts 297°
2026-05-06 14:53 29.28549 75.49374 35732 ft 431 kts 298°
2026-05-06 14:53 29.31369 75.43284 35759 ft 431 kts 300°
2026-05-06 14:54 29.34552 75.37454 35732 ft 431 kts 305°
2026-05-06 14:54 29.38094 75.31884 35734 ft 431 kts 306°
2026-05-06 14:55 29.41644 75.26384 35730 ft 431 kts 306°
2026-05-06 14:55 29.45218 75.20843 35728 ft 431 kts 306°
2026-05-06 14:56 29.48787 75.15307 35728 ft 431 kts 306°
2026-05-06 14:56 29.52353 75.09766 35728 ft 431 kts 306°
2026-05-06 14:57 29.55918 75.04218 35724 ft 432 kts 307°
2026-05-06 14:57 29.59502 74.98634 35728 ft 433 kts 307°
2026-05-06 14:58 29.63077 74.93059 35725 ft 433 kts 307°
2026-05-06 14:58 29.66631 74.87510 35724 ft 433 kts 307°
2026-05-06 14:59 29.70204 74.81922 35725 ft 433 kts 307°
2026-05-06 14:59 29.73771 74.76335 35723 ft 433 kts 307°
2026-05-06 15:00 29.77336 74.70744 35726 ft 433 kts 307°
2026-05-06 15:00 29.80908 74.65133 35730 ft 434 kts 307°
2026-05-06 15:01 29.84485 74.59509 35724 ft 434 kts 307°
2026-05-06 15:01 29.88057 74.53884 35721 ft 434 kts 307°
2026-05-06 15:02 29.91609 74.48281 35716 ft 434 kts 307°
2026-05-06 15:02 29.95175 74.42650 35713 ft 434 kts 306°
2026-05-06 15:03 29.98743 74.37008 35718 ft 434 kts 306°
2026-05-06 15:03 30.02299 74.31373 35736 ft 434 kts 307°
2026-05-06 15:04 30.05861 74.25722 35718 ft 435 kts 307°
2026-05-06 15:04 30.09430 74.20058 35717 ft 435 kts 307°
2026-05-06 15:05 30.12972 74.14425 35713 ft 435 kts 307°
2026-05-06 15:05 30.16532 74.08756 35712 ft 435 kts 307°
2026-05-06 15:06 30.20090 74.03080 35714 ft 435 kts 307°
2026-05-06 15:06 30.23617 73.97446 35703 ft 433 kts 307°
2026-05-06 15:07 30.27158 73.91800 35711 ft 432 kts 307°
2026-05-06 15:07 30.30692 73.86164 35714 ft 432 kts 307°
2026-05-06 15:08 30.34227 73.80516 35718 ft 432 kts 307°
2026-05-06 15:08 30.37760 73.74864 35718 ft 432 kts 307°
2026-05-06 15:09 30.41290 73.69206 35718 ft 432 kts 307°
2026-05-06 15:09 30.44817 73.63544 35706 ft 432 kts 307°
2026-05-06 15:10 30.48331 73.57893 35733 ft 431 kts 307°
2026-05-06 15:10 30.51819 73.52280 35728 ft 431 kts 307°
2026-05-06 15:11 30.55332 73.46619 35723 ft 431 kts 307°
2026-05-06 15:11 30.58842 73.40956 35725 ft 432 kts 307°
2026-05-06 15:12 30.62344 73.35294 35723 ft 432 kts 307°
2026-05-06 15:12 30.65851 73.29615 35703 ft 432 kts 307°
2026-05-06 15:13 30.69350 73.23943 35723 ft 431 kts 307°
2026-05-06 15:13 30.72851 73.18263 35733 ft 432 kts 307°
2026-05-06 15:14 30.76354 73.12579 35735 ft 432 kts 307°
2026-05-06 15:14 30.79854 73.06888 35732 ft 432 kts 307°
2026-05-06 15:15 30.83329 73.01227 35729 ft 432 kts 307°
2026-05-06 15:15 30.86818 72.95536 35733 ft 432 kts 307°
2026-05-06 15:16 30.90318 72.89819 35717 ft 432 kts 307°
2026-05-06 15:16 30.93807 72.84105 35737 ft 433 kts 307°
2026-05-06 15:17 30.97304 72.78376 35729 ft 433 kts 307°
2026-05-06 15:17 31.00796 72.72648 35732 ft 433 kts 307°
2026-05-06 15:18 31.04263 72.66952 35725 ft 433 kts 307°
2026-05-06 15:18 31.07753 72.61207 35725 ft 433 kts 307°
2026-05-06 15:19 31.11238 72.55468 35720 ft 432 kts 307°
2026-05-06 15:19 31.14716 72.49719 35737 ft 433 kts 307°
2026-05-06 15:20 31.18195 72.43966 35731 ft 433 kts 307°
2026-05-06 15:20 31.21678 72.38202 35723 ft 434 kts 307°
2026-05-06 15:21 31.25128 72.32455 35721 ft 434 kts 306°
2026-05-06 15:21 31.28282 72.26411 35725 ft 436 kts 301°
2026-05-06 15:22 31.31187 72.20201 35716 ft 434 kts 301°
2026-05-06 15:22 31.34076 72.13982 35722 ft 433 kts 301°
2026-05-06 15:23 31.36953 72.07768 35725 ft 434 kts 301°
2026-05-06 15:23 31.39814 72.01587 35721 ft 434 kts 301°
2026-05-06 15:24 31.42692 71.95357 35716 ft 434 kts 301°
2026-05-06 15:24 31.45567 71.89124 35698 ft 434 kts 301°
2026-05-06 15:25 31.48434 71.82896 35713 ft 433 kts 301°
2026-05-06 15:25 31.51293 71.76671 35716 ft 433 kts 301°
2026-05-06 15:26 31.54158 71.70426 35715 ft 433 kts 301°
2026-05-06 15:26 31.57013 71.64183 35717 ft 435 kts 301°
2026-05-06 15:27 31.59859 71.57963 35714 ft 435 kts 301°
2026-05-06 15:27 31.62728 71.51683 35701 ft 435 kts 301°
2026-05-06 15:28 31.65582 71.45410 35712 ft 435 kts 301°
2026-05-06 15:28 31.68437 71.39121 35711 ft 435 kts 301°
2026-05-06 15:29 31.71288 71.32833 35711 ft 435 kts 300°
2026-05-06 15:29 31.74134 71.26547 35709 ft 435 kts 300°
2026-05-06 15:30 31.76964 71.20284 35712 ft 437 kts 301°
2026-05-06 15:30 31.79817 71.13962 35709 ft 437 kts 301°
2026-05-06 15:31 31.82671 71.07630 35710 ft 437 kts 301°
2026-05-06 15:31 31.85522 71.01289 35709 ft 437 kts 300°
2026-05-06 15:32 31.89836 70.91817 35709 ft 436 kts 303°
2026-05-06 15:32 31.93102 70.85855 35701 ft 435 kts 307°
2026-05-06 15:33 31.96750 70.80164 35714 ft 435 kts 309°
2026-05-06 15:33 32.00446 70.74511 35716 ft 436 kts 309°
2026-05-06 15:34 32.04162 70.68831 35711 ft 436 kts 309°
2026-05-06 15:34 32.07869 70.63157 35714 ft 436 kts 309°
2026-05-06 15:35 32.11578 70.57472 35714 ft 436 kts 309°
2026-05-06 15:35 32.15281 70.51793 35720 ft 436 kts 309°
2026-05-06 15:36 32.18958 70.46140 35725 ft 436 kts 309°
2026-05-06 15:36 32.22663 70.40434 35724 ft 436 kts 309°
2026-05-06 15:37 32.26364 70.34726 35729 ft 436 kts 308°
2026-05-06 15:37 32.30035 70.29056 35746 ft 436 kts 309°
2026-05-06 15:38 32.33730 70.23341 35751 ft 436 kts 308°
2026-05-06 15:38 32.37422 70.17631 35770 ft 436 kts 308°
2026-05-06 15:39 32.41184 70.11989 35792 ft 436 kts 309°
2026-05-06 15:39 32.44955 70.06354 35823 ft 436 kts 309°
2026-05-06 15:40 32.48090 70.01663 35837 ft 436 kts 309°
2026-05-06 15:40 32.52454 69.95114 35842 ft 434 kts 309°
2026-05-06 15:41 32.56197 69.89484 35878 ft 435 kts 309°
2026-05-06 15:41 32.59342 69.84742 35857 ft 436 kts 309°
2026-05-06 15:42 32.63070 69.79121 35886 ft 436 kts 309°
2026-05-06 15:42 32.66825 69.73444 35894 ft 436 kts 309°
2026-05-06 15:43 32.70574 69.67771 35889 ft 435 kts 309°
2026-05-06 15:43 32.74320 69.62090 35899 ft 436 kts 309°
2026-05-06 15:44 32.78068 69.56396 35908 ft 437 kts 309°
2026-05-06 15:44 32.81823 69.50694 35892 ft 437 kts 309°
2026-05-06 15:45 32.85535 69.45045 35901 ft 435 kts 308°
2026-05-06 15:45 32.89249 69.39365 35901 ft 435 kts 308°
2026-05-06 15:46 32.92962 69.33668 35901 ft 435 kts 308°
2026-05-06 15:46 32.96682 69.27953 35915 ft 436 kts 308°
2026-05-06 15:47 33.00394 69.22240 35903 ft 436 kts 308°
2026-05-06 15:47 33.04113 69.16513 35894 ft 436 kts 308°
2026-05-06 15:48 33.07816 69.10799 35901 ft 435 kts 308°
2026-05-06 15:48 33.11517 69.05075 35904 ft 435 kts 308°
2026-05-06 15:49 33.15217 68.99344 35902 ft 436 kts 308°
2026-05-06 15:49 33.18901 68.93628 35903 ft 437 kts 308°
2026-05-06 15:50 33.22615 68.87861 35900 ft 437 kts 308°
2026-05-06 15:50 33.26329 68.82088 35887 ft 436 kts 308°
2026-05-06 15:51 33.30181 68.76490 35897 ft 436 kts 311°
2026-05-06 15:51 33.34128 68.70985 35896 ft 436 kts 311°
2026-05-06 15:52 33.38056 68.65503 35909 ft 436 kts 311°
2026-05-06 15:52 33.42017 68.59966 35907 ft 437 kts 311°
2026-05-06 15:53 33.45971 68.54430 35928 ft 437 kts 311°
2026-05-06 15:53 33.49926 68.48886 35926 ft 436 kts 310°
2026-05-06 15:54 33.53866 68.43346 35965 ft 436 kts 310°
2026-05-06 15:54 33.57765 68.37738 35970 ft 437 kts 310°
2026-05-06 15:55 33.61621 68.32071 36014 ft 438 kts 309°
2026-05-06 15:55 33.65457 68.26432 36009 ft 439 kts 309°
2026-05-06 15:56 33.69319 68.20750 36034 ft 438 kts 310°
2026-05-06 15:56 33.73179 68.15075 36053 ft 437 kts 309°
2026-05-06 15:57 33.77021 68.09408 36079 ft 436 kts 309°
2026-05-06 15:57 33.80861 68.03735 36073 ft 438 kts 309°
2026-05-06 15:58 33.84691 67.98070 36076 ft 438 kts 309°
2026-05-06 15:58 33.88541 67.92369 36104 ft 438 kts 309°
2026-05-06 15:59 33.92391 67.86657 36112 ft 438 kts 309°
2026-05-06 15:59 33.96235 67.80943 36115 ft 438 kts 309°
2026-05-06 16:00 34.00061 67.75221 36127 ft 439 kts 309°
2026-05-06 16:00 34.03871 67.69453 36130 ft 439 kts 309°
2026-05-06 16:01 34.07650 67.63725 36129 ft 439 kts 309°
2026-05-06 16:01 34.11463 67.57939 36136 ft 439 kts 309°
2026-05-06 16:02 34.15261 67.52163 36138 ft 439 kts 309°
2026-05-06 16:02 34.19040 67.46409 36139 ft 440 kts 308°
2026-05-06 16:03 34.22844 67.40602 36132 ft 440 kts 308°
2026-05-06 16:03 34.26643 67.34799 36132 ft 439 kts 308°
2026-05-06 16:04 34.30437 67.28993 36141 ft 439 kts 308°
2026-05-06 16:04 34.34238 67.23169 36129 ft 440 kts 308°
2026-05-06 16:05 34.38041 67.17340 36145 ft 440 kts 308°
2026-05-06 16:05 34.41804 67.11553 36139 ft 439 kts 308°
2026-05-06 16:06 34.45588 67.05722 36150 ft 440 kts 308°
2026-05-06 16:06 34.49375 66.99883 36144 ft 440 kts 308°
2026-05-06 16:07 34.53170 66.94017 36163 ft 443 kts 308°
2026-05-06 16:07 34.56987 66.88109 36135 ft 443 kts 308°
2026-05-06 16:08 34.60763 66.82245 36155 ft 442 kts 308°
2026-05-06 16:08 34.64552 66.76359 36161 ft 442 kts 308°
2026-05-06 16:09 34.68344 66.70462 36169 ft 442 kts 308°
2026-05-06 16:09 34.72135 66.64554 36175 ft 442 kts 307°
2026-05-06 16:10 34.75924 66.58629 36165 ft 443 kts 307°
2026-05-06 16:10 34.79677 66.52755 36158 ft 441 kts 307°
2026-05-06 16:11 34.83446 66.46844 36159 ft 441 kts 307°
2026-05-06 16:11 34.87208 66.40934 36177 ft 442 kts 307°
2026-05-06 16:12 34.90984 66.34995 36175 ft 443 kts 307°
2026-05-06 16:12 34.94749 66.29052 36176 ft 442 kts 307°
2026-05-06 16:13 34.98506 66.23100 36167 ft 441 kts 307°
2026-05-06 16:13 35.02208 66.17184 36181 ft 441 kts 307°
2026-05-06 16:14 35.05931 66.11224 36191 ft 444 kts 307°
2026-05-06 16:14 35.09670 66.05226 36182 ft 443 kts 307°
2026-05-06 16:15 35.13394 65.99243 36178 ft 442 kts 307°
2026-05-06 16:15 35.17118 65.93249 36180 ft 442 kts 307°
2026-05-06 16:16 35.20829 65.87265 36172 ft 441 kts 307°
2026-05-06 16:16 35.24541 65.81271 36174 ft 441 kts 306°
2026-05-06 16:17 35.28252 65.75269 36169 ft 442 kts 306°
2026-05-06 16:17 35.31962 65.69258 36161 ft 442 kts 306°
2026-05-06 16:18 35.35639 65.63284 36153 ft 441 kts 306°
2026-05-06 16:18 35.39340 65.57267 36148 ft 441 kts 306°
2026-05-06 16:19 35.43048 65.51227 36131 ft 443 kts 306°
2026-05-06 16:19 35.46752 65.45183 36125 ft 442 kts 306°
2026-05-06 16:20 35.50456 65.39130 36109 ft 442 kts 306°
2026-05-06 16:20 35.54124 65.33123 36098 ft 442 kts 306°
2026-05-06 16:21 35.57819 65.27061 36084 ft 442 kts 306°
2026-05-06 16:21 35.61507 65.21008 36076 ft 442 kts 306°
2026-05-06 16:22 35.65184 65.14953 36061 ft 442 kts 306°
2026-05-06 16:22 35.68861 65.08888 36052 ft 442 kts 306°
2026-05-06 16:23 35.72532 65.02825 36040 ft 441 kts 306°
2026-05-06 16:23 35.76210 64.96742 35994 ft 444 kts 306°
2026-05-06 16:24 35.79883 64.90654 36001 ft 444 kts 306°
2026-05-06 16:24 35.83562 64.84544 35974 ft 443 kts 306°
2026-05-06 16:25 35.87242 64.78424 35976 ft 443 kts 306°
2026-05-06 16:25 35.90891 64.72343 35948 ft 444 kts 306°
2026-05-06 16:26 35.94573 64.66197 35950 ft 444 kts 306°
2026-05-06 16:26 35.98249 64.60049 35944 ft 445 kts 305°
2026-05-06 16:27 36.01920 64.53899 35944 ft 445 kts 305°
2026-05-06 16:27 36.05600 64.47722 35925 ft 445 kts 305°
2026-05-06 16:28 36.09271 64.41551 35915 ft 445 kts 305°
2026-05-06 16:28 36.12320 64.36414 35914 ft 445 kts 305°
2026-05-06 16:29 36.16575 64.29236 35910 ft 443 kts 305°
2026-05-06 16:29 36.19690 64.24196 35911 ft 443 kts 307°
2026-05-06 16:30 36.22875 64.19149 35911 ft 443 kts 307°
2026-05-06 16:30 36.27287 64.12127 35907 ft 444 kts 307°
2026-05-06 16:31 36.31079 64.06065 35907 ft 444 kts 306°
2026-05-06 16:31 36.34865 64.00002 35902 ft 443 kts 306°
2026-05-06 16:32 36.38633 63.93947 35915 ft 443 kts 306°
2026-05-06 16:32 36.42388 63.87902 35901 ft 444 kts 306°
2026-05-06 16:33 36.46172 63.81799 35900 ft 444 kts 306°
2026-05-06 16:34 36.51836 63.72648 35882 ft 444 kts 306°
2026-05-06 16:34 36.55612 63.66535 35900 ft 444 kts 306°
2026-05-06 16:35 36.59378 63.60423 35891 ft 444 kts 306°
2026-05-06 16:35 36.63142 63.54303 35879 ft 444 kts 306°
2026-05-06 16:36 36.66875 63.48222 35867 ft 444 kts 306°
2026-05-06 16:36 36.70634 63.42091 35872 ft 444 kts 306°
2026-05-06 16:37 36.74396 63.35944 35858 ft 445 kts 305°
2026-05-06 16:37 36.78148 63.29798 35857 ft 445 kts 305°
2026-05-06 16:38 36.81900 63.23643 35841 ft 445 kts 305°
2026-05-06 16:38 36.85650 63.17481 35847 ft 445 kts 305°
2026-05-06 16:39 36.89371 63.11358 35819 ft 445 kts 305°
2026-05-06 16:39 36.93117 63.05178 35817 ft 445 kts 305°
2026-05-06 16:40 36.96856 62.98999 35817 ft 445 kts 305°
2026-05-06 16:40 37.00588 62.92819 35808 ft 445 kts 305°
2026-05-06 16:41 37.04325 62.86626 35800 ft 445 kts 305°
2026-05-06 16:41 37.08057 62.80423 35796 ft 445 kts 304°
2026-05-06 16:42 37.11784 62.74217 35785 ft 445 kts 304°
2026-05-06 16:42 37.15484 62.68047 35786 ft 445 kts 304°
2026-05-06 16:43 37.19206 62.61831 35783 ft 446 kts 304°
2026-05-06 16:43 37.22934 62.55588 35773 ft 446 kts 304°
2026-05-06 16:44 37.26655 62.49347 35766 ft 446 kts 304°
2026-05-06 16:44 37.30368 62.43108 35767 ft 445 kts 304°
2026-05-06 16:45 37.34081 62.36860 35766 ft 446 kts 304°
2026-05-06 16:45 37.37792 62.30599 35764 ft 446 kts 304°
2026-05-06 16:46 37.41506 62.24322 35757 ft 446 kts 304°
2026-05-06 16:46 37.45191 62.18081 35747 ft 447 kts 304°
2026-05-06 16:47 37.48900 62.11796 35741 ft 446 kts 303°
2026-05-06 16:47 37.52606 62.05494 35737 ft 446 kts 303°
2026-05-06 16:48 37.56304 61.99194 35735 ft 446 kts 303°
2026-05-06 16:48 37.59975 61.92871 35734 ft 446 kts 302°
2026-05-06 16:49 37.63239 61.86295 35735 ft 444 kts 296°
2026-05-06 16:49 37.66088 61.79386 35733 ft 443 kts 294°
2026-05-06 16:50 37.68869 61.72431 35729 ft 443 kts 294°
2026-05-06 16:50 37.71642 61.65473 35724 ft 443 kts 294°
2026-05-06 16:51 37.74417 61.58496 35742 ft 443 kts 294°
2026-05-06 16:51 37.77180 61.51534 35722 ft 443 kts 294°
2026-05-06 16:52 37.79944 61.44556 35720 ft 443 kts 294°
2026-05-06 16:52 37.82701 61.37578 35721 ft 443 kts 294°
2026-05-06 16:53 37.85459 61.30585 35714 ft 443 kts 294°
2026-05-06 16:53 37.88208 61.23596 35721 ft 443 kts 294°
2026-05-06 16:54 37.90936 61.16646 35706 ft 443 kts 294°
2026-05-06 16:54 37.93676 61.09649 35898 ft 442 kts 294°
2026-05-06 16:54 37.95040 61.06161 36025 ft 441 kts 294°
2026-05-06 16:55 37.96402 61.02674 36156 ft 441 kts 294°
2026-05-06 16:55 37.97760 60.99196 36273 ft 440 kts 294°
2026-05-06 16:55 37.99117 60.95712 36425 ft 440 kts 293°
2026-05-06 16:55 38.00470 60.92235 36540 ft 440 kts 293°
2026-05-06 16:56 38.01824 60.88752 36673 ft 439 kts 293°
2026-05-06 16:56 38.03177 60.85267 36805 ft 439 kts 293°
2026-05-06 16:56 38.04527 60.81784 36940 ft 439 kts 293°
2026-05-06 16:56 38.05872 60.78312 37062 ft 438 kts 293°
2026-05-06 16:57 38.07217 60.74838 37191 ft 438 kts 293°
2026-05-06 16:57 38.08545 60.71406 37327 ft 436 kts 293°
2026-05-06 16:57 38.09883 60.67942 37461 ft 436 kts 293°
2026-05-06 16:57 38.11216 60.64484 37610 ft 435 kts 293°
2026-05-06 16:58 38.12552 60.61020 37694 ft 435 kts 292°
2026-05-06 16:58 38.15209 60.54108 37698 ft 434 kts 292°
2026-05-06 16:59 38.17858 60.47199 37700 ft 434 kts 292°
2026-05-06 16:59 38.20505 60.40287 37702 ft 433 kts 292°
2026-05-06 17:00 38.23127 60.33423 37702 ft 433 kts 292°
2026-05-06 17:00 38.25765 60.26504 37711 ft 433 kts 292°
2026-05-06 17:01 38.28389 60.19600 37707 ft 433 kts 292°
2026-05-06 17:01 38.31013 60.12688 37711 ft 432 kts 292°
2026-05-06 17:02 38.33610 60.05826 37709 ft 432 kts 292°
2026-05-06 17:02 38.36219 59.98921 37724 ft 431 kts 291°
2026-05-06 17:03 38.38822 59.92011 37721 ft 431 kts 291°
2026-05-06 17:03 38.41402 59.85152 37721 ft 430 kts 291°
2026-05-06 17:04 38.43988 59.78258 37721 ft 430 kts 291°
2026-05-06 17:04 38.46568 59.71362 37742 ft 430 kts 291°
2026-05-06 17:05 38.49145 59.64462 37715 ft 430 kts 291°
2026-05-06 17:05 38.51716 59.57562 37719 ft 429 kts 291°
2026-05-06 17:06 38.54274 59.50679 37723 ft 428 kts 291°
2026-05-06 17:06 38.56816 59.43820 37730 ft 428 kts 291°
2026-05-06 17:07 38.59369 59.36920 37741 ft 428 kts 291°
2026-05-06 17:07 38.62027 59.30150 37739 ft 428 kts 292°
2026-05-06 17:08 38.64752 59.23370 37736 ft 427 kts 292°
2026-05-06 17:08 38.67455 59.16591 37735 ft 427 kts 292°
2026-05-06 17:09 38.70149 59.09808 37763 ft 427 kts 292°
2026-05-06 17:09 38.72847 59.02995 37755 ft 427 kts 292°
2026-05-06 17:10 38.75535 58.96187 37748 ft 429 kts 291°
2026-05-06 17:10 38.78209 58.89397 37749 ft 429 kts 291°
2026-05-06 17:11 38.80897 58.82559 37752 ft 429 kts 291°
2026-05-06 17:11 38.83584 58.75707 37756 ft 429 kts 291°
2026-05-06 17:12 38.86267 58.68847 37755 ft 429 kts 291°
2026-05-06 17:12 38.88761 58.61951 37754 ft 426 kts 288°
2026-05-06 17:13 38.90815 58.54814 37761 ft 425 kts 285°